TimeEST,TemperatureF,Dew PointF,Humidity,Sea Level PressureIn,VisibilityMPH,Wind Direction,Wind SpeedMPH,Gust SpeedMPH,PrecipitationIn,Events,Conditions,WindDirDegrees,DateUTC
12:58 AM,43.0,28.0,56,30.09,10.0,West,6.9,-,N/A,,Clear,280,2013-03-05 05:58:00
2:58 AM,41.0,23.0,49,30.08,10.0,West,5.8,-,N/A,,Clear,280,2013-03-05 07:58:00
3:58 AM,39.9,24.1,53,30.09,10.0,WNW,4.6,-,N/A,,Clear,290,2013-03-05 08:58:00
4:58 AM,39.9,23.0,51,30.10,10.0,Calm,Calm,-,N/A,,Clear,0,2013-03-05 09:58:00
5:58 AM,39.9,26.1,58,30.12,10.0,NW,3.5,-,N/A,,Clear,310,2013-03-05 10:58:00
6:58 AM,43.0,28.0,56,30.12,10.0,Calm,Calm,-,N/A,,Clear,0,2013-03-05 11:58:00
7:58 AM,45.0,28.9,53,30.12,10.0,NNW,4.6,-,N/A,,Mostly Cloudy,340,2013-03-05 12:58:00
9:58 AM,50.0,28.0,43,30.10,10.0,SSW,3.5,-,N/A,,Clear,210,2013-03-05 14:58:00
10:58 AM,55.0,37.9,53,30.09,10.0,SW,10.4,-,N/A,,Clear,220,2013-03-05 15:58:00
11:58 AM,57.0,39.9,53,30.04,10.0,South,9.2,-,N/A,,Clear,190,2013-03-05 16:58:00
12:58 PM,59.0,42.1,53,30.03,10.0,SW,15.0,-,N/A,,Clear,230,2013-03-05 17:58:00
1:58 PM,57.9,42.1,56,29.99,10.0,SW,12.7,20.7,N/A,,Overcast,220,2013-03-05 18:58:00
2:58 PM,57.9,44.1,60,29.96,10.0,SSW,12.7,-,N/A,,Unknown,200,2013-03-05 19:58:00
3:58 PM,57.0,45.0,64,29.95,10.0,SSW,9.2,-,N/A,,Overcast,200,2013-03-05 20:58:00
4:58 PM,55.9,46.9,72,29.92,10.0,SSW,8.1,-,0.00,Rain,Light Rain,200,2013-03-05 21:58:00
5:58 PM,57.0,46.0,67,29.90,10.0,SSW,11.5,-,0.00,,Overcast,210,2013-03-05 22:58:00
6:58 PM,57.0,48.0,72,29.87,10.0,SSW,8.1,-,N/A,,Overcast,200,2013-03-05 23:58:00
7:58 PM,57.0,48.0,72,29.84,10.0,South,6.9,-,N/A,,Overcast,190,2013-03-06 00:58:00
8:58 PM,57.0,50.0,77,29.82,10.0,SW,6.9,-,N/A,,Overcast,220,2013-03-06 01:58:00
9:58 PM,57.0,52.0,83,29.75,10.0,SSE,8.1,-,0.00,,Mostly Cloudy,160,2013-03-06 02:58:00
10:58 PM,59.0,54.0,83,29.70,10.0,South,13.8,-,N/A,,Overcast,180,2013-03-06 03:58:00
11:58 PM,60.1,54.0,80,29.65,6.0,SSW,17.3,24.2,0.01,Rain,Light Rain,200,2013-03-06 04:58:00